Time,TemperatureF,DewpointF,PressureIn,WindDirection,WindDirectionDegrees,WindSpeedMPH,WindSpeedGustMPH,Humidity,HourlyPrecipIn,Conditions,Clouds,dailyrainin,SoftwareType,DateUTC
2013-03-12 00:05:00,35.2,27.1,29.55,WSW,244,8.0,13.0,72,0.00,,,-99.99,Weather View 32 v60,2013-03-12 04:05:00,
2013-03-12 00:10:00,35.2,27.1,29.55,West,259,15.0,15.0,72,0.00,,,-99.99,Weather View 32 v60,2013-03-12 04:10:00,
2013-03-12 00:20:00,35.1,26.6,29.55,West,278,10.0,15.0,71,0.00,,,-99.99,Weather View 32 v60,2013-03-12 04:20:00,
2013-03-12 00:25:00,35.1,26.6,29.55,WSW,239,6.0,15.0,71,0.00,,,-99.99,Weather View 32 v60,2013-03-12 04:25:00,
2013-03-12 00:35:00,35.1,26.6,29.55,SW,222,8.0,15.0,71,0.00,,,-99.99,Weather View 32 v60,2013-03-12 04:35:00,
2013-03-12 00:40:00,34.9,26.4,29.55,SW,219,8.0,15.0,71,0.00,,,-99.99,Weather View 32 v60,2013-03-12 04:40:00,
2013-03-12 00:45:00,34.9,26.4,29.55,SSW,206,6.0,15.0,71,0.00,,,-99.99,Weather View 32 v60,2013-03-12 04:45:00,
2013-03-12 00:50:00,34.9,26.4,29.55,West,259,6.0,15.0,71,0.00,,,-99.99,Weather View 32 v60,2013-03-12 04:50:00,
2013-03-12 01:00:00,34.7,26.3,29.58,West,260,7.0,15.0,71,0.00,,,-99.99,Weather View 32 v60,2013-03-12 05:00:00,
2013-03-12 01:05:00,34.7,26.3,29.58,West,272,4.0,15.0,71,0.00,,,-99.99,Weather View 32 v60,2013-03-12 05:05:00,
2013-03-12 01:10:00,34.7,26.3,29.58,West,263,8.0,15.0,71,0.00,,,-99.99,Weather View 32 v60,2013-03-12 05:10:00,
2013-03-12 01:15:00,34.5,26.1,29.58,West,264,9.0,14.0,71,0.00,,,-99.99,Weather View 32 v60,2013-03-12 05:15:00,
2013-03-12 01:20:00,34.5,26.1,29.58,SSW,201,8.0,14.0,71,0.00,,,-99.99,Weather View 32 v60,2013-03-12 05:20:00,
2013-03-12 01:25:00,34.5,26.1,29.58,SW,227,8.0,14.0,71,0.00,,,-99.99,Weather View 32 v60,2013-03-12 05:25:00,
2013-03-12 01:30:00,34.5,26.1,29.58,WSW,240,5.0,14.0,71,0.00,,,-99.99,Weather View 32 v60,2013-03-12 05:30:00,
2013-03-12 01:35:00,34.5,25.7,29.58,WSW,241,5.0,14.0,70,0.00,,,-99.99,Weather View 32 v60,2013-03-12 05:35:00,
2013-03-12 01:40:00,34.5,25.7,29.58,West,262,9.0,14.0,70,0.00,,,-99.99,Weather View 32 v60,2013-03-12 05:40:00,
2013-03-12 01:45:00,34.3,25.6,29.58,West,261,12.0,14.0,70,0.00,,,-99.99,Weather View 32 v60,2013-03-12 05:45:00,
2013-03-12 01:50:00,34.3,25.6,29.58,SW,226,7.0,14.0,70,0.00,,,-99.99,Weather View 32 v60,2013-03-12 05:50:00,
2013-03-12 01:55:00,34.3,25.6,29.58,West,281,8.0,13.0,70,0.00,,,-99.99,Weather View 32 v60,2013-03-12 05:55:00,
2013-03-12 02:00:00,34.3,25.6,29.58,SW,236,8.0,13.0,70,0.00,,,-99.99,Weather View 32 v60,2013-03-12 06:00:00,
2013-03-12 02:05:00,34.3,25.6,29.58,West,265,4.0,13.0,70,0.00,,,-99.99,Weather View 32 v60,2013-03-12 06:05:00,
2013-03-12 02:15:00,34.3,25.2,29.58,WSW,244,6.0,13.0,69,0.00,,,-99.99,Weather View 32 v60,2013-03-12 06:15:00,
2013-03-12 02:20:00,34.3,25.2,29.58,WSW,251,6.0,13.0,69,0.00,,,-99.99,Weather View 32 v60,2013-03-12 06:20:00,
2013-03-12 02:25:00,34.3,25.2,29.61,WSW,249,8.0,13.0,69,0.00,,,-99.99,Weather View 32 v60,2013-03-12 06:25:00,
2013-03-12 02:30:00,34.3,25.2,29.61,SW,234,5.0,13.0,69,0.00,,,-99.99,Weather View 32 v60,2013-03-12 06:30:00,
2013-03-12 02:35:00,34.3,25.2,29.61,WSW,250,8.0,13.0,69,0.00,,,-99.99,Weather View 32 v60,2013-03-12 06:35:00,
2013-03-12 02:40:00,34.3,25.2,29.61,West,271,6.0,13.0,69,0.00,,,-99.99,Weather View 32 v60,2013-03-12 06:40:00,
2013-03-12 02:50:00,34.2,24.7,29.61,SW,223,3.0,11.0,68,0.00,,,-99.99,Weather View 32 v60,2013-03-12 06:50:00,
2013-03-12 02:55:00,34.2,24.7,29.61,NW,313,5.0,11.0,68,0.00,,,-99.99,Weather View 32 v60,2013-03-12 06:55:00,
2013-03-12 03:00:00,34.2,24.7,29.61,West,272,5.0,11.0,68,0.00,,,-99.99,Weather View 32 v60,2013-03-12 07:00:00,
2013-03-12 03:05:00,34.2,24.7,29.61,WSW,250,5.0,11.0,68,0.00,,,-99.99,Weather View 32 v60,2013-03-12 07:05:00,
2013-03-12 03:10:00,34.2,24.7,29.61,WSW,249,6.0,11.0,68,0.00,,,-99.99,Weather View 32 v60,2013-03-12 07:10:00,
2013-03-12 03:15:00,34.2,24.7,29.61,West,263,8.0,11.0,68,0.00,,,-99.99,Weather View 32 v60,2013-03-12 07:15:00,
2013-03-12 03:20:00,34.2,24.7,29.61,WSW,257,3.0,11.0,68,0.00,,,-99.99,Weather View 32 v60,2013-03-12 07:20:00,
2013-03-12 03:25:00,34.2,24.7,29.61,SSW,200,3.0,11.0,68,0.00,,,-99.99,Weather View 32 v60,2013-03-12 07:25:00,
2013-03-12 03:30:00,34.2,24.7,29.61,WSW,251,4.0,10.0,68,0.00,,,-99.99,Weather View 32 v60,2013-03-12 07:30:00,
2013-03-12 03:35:00,34.2,24.7,29.61,WSW,251,3.0,10.0,68,0.00,,,-99.99,Weather View 32 v60,2013-03-12 07:35:00,
2013-03-12 03:40:00,34.0,24.5,29.61,SW,220,0.0,8.0,68,0.00,,,-99.99,Weather View 32 v60,2013-03-12 07:40:00,
2013-03-12 03:45:00,34.0,24.9,29.61,SW,228,4.0,8.0,69,0.00,,,-99.99,Weather View 32 v60,2013-03-12 07:45:00,
2013-03-12 03:50:00,34.0,24.9,29.61,West,267,5.0,8.0,69,0.00,,,-99.99,Weather View 32 v60,2013-03-12 07:50:00,
2013-03-12 03:55:00,34.0,24.9,29.61,SW,236,6.0,8.0,69,0.00,,,-99.99,Weather View 32 v60,2013-03-12 07:55:00,
2013-03-12 04:00:00,34.0,24.9,29.61,WSW,257,4.0,8.0,69,0.00,,,-99.99,Weather View 32 v60,2013-03-12 08:00:00,
2013-03-12 04:05:00,34.0,24.9,29.61,WSW,254,6.0,8.0,69,0.00,,,-99.99,Weather View 32 v60,2013-03-12 08:05:00,
2013-03-12 04:10:00,34.0,24.9,29.61,WSW,254,4.0,8.0,69,0.00,,,-99.99,Weather View 32 v60,2013-03-12 08:10:00,
2013-03-12 04:15:00,34.0,24.9,29.61,WSW,243,6.0,8.0,69,0.00,,,-99.99,Weather View 32 v60,2013-03-12 08:15:00,
2013-03-12 04:20:00,34.0,25.2,29.61,SW,232,5.0,9.0,70,0.00,,,-99.99,Weather View 32 v60,2013-03-12 08:20:00,
2013-03-12 04:25:00,34.0,25.2,29.61,WNW,283,8.0,9.0,70,0.00,,,-99.99,Weather View 32 v60,2013-03-12 08:25:00,
2013-03-12 04:30:00,34.0,25.2,29.61,West,267,8.0,11.0,70,0.00,,,-99.99,Weather View 32 v60,2013-03-12 08:30:00,
2013-03-12 04:35:00,33.8,25.4,29.61,West,264,6.0,11.0,71,0.00,,,-99.99,Weather View 32 v60,2013-03-12 08:35:00,
2013-03-12 04:40:00,33.8,25.4,29.64,West,259,5.0,11.0,71,0.00,,,-99.99,Weather View 32 v60,2013-03-12 08:40:00,
2013-03-12 04:45:00,33.6,25.6,29.64,West,265,7.0,11.0,72,0.00,,,-99.99,Weather View 32 v60,2013-03-12 08:45:00,
2013-03-12 04:50:00,33.6,25.6,29.64,SW,236,6.0,11.0,72,0.00,,,-99.99,Weather View 32 v60,2013-03-12 08:50:00,
2013-03-12 04:55:00,33.4,25.4,29.64,West,277,6.0,12.0,72,0.00,,,-99.99,Weather View 32 v60,2013-03-12 08:55:00,
2013-03-12 05:00:00,33.3,24.9,29.64,WNW,290,11.0,17.0,71,0.00,,,-99.99,Weather View 32 v60,2013-03-12 09:00:00,
2013-03-12 05:10:00,32.9,21.7,29.64,West,276,10.0,17.0,63,0.00,,,-99.99,Weather View 32 v60,2013-03-12 09:10:00,
2013-03-12 05:15:00,32.9,21.7,29.64,WNW,291,13.0,17.0,63,0.00,,,-99.99,Weather View 32 v60,2013-03-12 09:15:00,
2013-03-12 05:20:00,32.7,21.1,29.64,WSW,254,13.0,17.0,62,0.00,,,-99.99,Weather View 32 v60,2013-03-12 09:20:00,
2013-03-12 05:28:00,32.5,21.0,29.64,WNW,297,11.0,17.0,62,0.00,,,-99.99,Weather View 32 v60,2013-03-12 09:28:00,
2013-03-12 05:35:00,32.4,21.9,29.64,WNW,292,15.0,17.0,65,0.00,,,-99.99,Weather View 32 v60,2013-03-12 09:35:00,
2013-03-12 05:40:00,32.2,21.7,29.64,West,265,13.0,17.0,65,0.00,,,-99.99,Weather View 32 v60,2013-03-12 09:40:00,
2013-03-12 05:45:00,32.2,20.6,29.64,WNW,295,17.0,18.0,62,0.00,,,-99.99,Weather View 32 v60,2013-03-12 09:45:00,
2013-03-12 05:50:00,32.2,19.8,29.64,West,262,14.0,18.0,60,0.00,,,-99.99,Weather View 32 v60,2013-03-12 09:50:00,
2013-03-12 05:55:00,32.2,19.1,29.64,WNW,290,10.0,18.0,58,0.00,,,-99.99,Weather View 32 v60,2013-03-12 09:55:00,
2013-03-12 06:00:00,32.0,18.5,29.64,West,279,10.0,18.0,57,0.00,,,-99.99,Weather View 32 v60,2013-03-12 10:00:00,
2013-03-12 06:10:00,32.0,17.6,29.64,West,280,11.0,18.0,55,0.00,,,-99.99,Weather View 32 v60,2013-03-12 10:10:00,
2013-03-12 06:15:00,31.8,16.6,29.64,West,259,13.0,18.0,53,0.00,,,-99.99,Weather View 32 v60,2013-03-12 10:15:00,
2013-03-12 06:20:00,31.8,16.6,29.64,WNW,301,8.0,18.0,53,0.00,,,-99.99,Weather View 32 v60,2013-03-12 10:20:00,
2013-03-12 06:25:00,31.8,17.1,29.67,West,275,10.0,18.0,54,0.00,,,-99.99,Weather View 32 v60,2013-03-12 10:25:00,
2013-03-12 06:30:00,31.8,17.1,29.67,WSW,249,13.0,18.0,54,0.00,,,-99.99,Weather View 32 v60,2013-03-12 10:30:00,
2013-03-12 06:35:00,31.8,16.6,29.67,WNW,292,8.0,18.0,53,0.00,,,-99.99,Weather View 32 v60,2013-03-12 10:35:00,
2013-03-12 06:40:00,31.8,17.1,29.67,West,275,11.0,18.0,54,0.00,,,-99.99,Weather View 32 v60,2013-03-12 10:40:00,
2013-03-12 06:45:00,31.8,17.1,29.67,West,270,11.0,18.0,54,0.00,,,-99.99,Weather View 32 v60,2013-03-12 10:45:00,
2013-03-12 06:50:00,31.8,17.1,29.67,WNW,295,13.0,18.0,54,0.00,,,-99.99,Weather View 32 v60,2013-03-12 10:50:00,
2013-03-12 07:00:00,31.6,16.9,29.67,West,277,12.0,19.0,54,0.00,,,-99.99,Weather View 32 v60,2013-03-12 11:00:00,
2013-03-12 07:05:00,31.6,16.9,29.67,WNW,289,17.0,19.0,54,0.00,,,-99.99,Weather View 32 v60,2013-03-12 11:05:00,
2013-03-12 07:10:00,31.6,17.3,29.69,WNW,302,12.0,19.0,55,0.00,,,-99.99,Weather View 32 v60,2013-03-12 11:10:00,
2013-03-12 07:15:00,31.6,17.3,29.69,West,262,8.0,19.0,55,0.00,,,-99.99,Weather View 32 v60,2013-03-12 11:15:00,
2013-03-12 07:20:00,31.6,17.3,29.69,West,275,6.0,19.0,55,0.00,,,-99.99,Weather View 32 v60,2013-03-12 11:20:00,
2013-03-12 07:25:00,31.6,17.3,29.69,WNW,293,6.0,19.0,55,0.00,,,-99.99,Weather View 32 v60,2013-03-12 11:25:00,
2013-03-12 07:30:00,31.6,17.7,29.69,West,275,8.0,19.0,56,0.00,,,-99.99,Weather View 32 v60,2013-03-12 11:30:00,
2013-03-12 07:35:00,31.6,17.7,29.69,WNW,282,9.0,19.0,56,0.00,,,-99.99,Weather View 32 v60,2013-03-12 11:35:00,
2013-03-12 07:40:00,31.6,17.7,29.67,West,278,8.0,19.0,56,0.00,,,-99.99,Weather View 32 v60,2013-03-12 11:40:00,
2013-03-12 07:45:00,31.6,17.7,29.67,West,266,6.0,19.0,56,0.00,,,-99.99,Weather View 32 v60,2013-03-12 11:45:00,
2013-03-12 07:50:00,31.6,18.1,29.67,WSW,246,7.0,19.0,57,0.00,,,-99.99,Weather View 32 v60,2013-03-12 11:50:00,
2013-03-12 07:55:00,31.6,18.1,29.69,West,266,6.0,18.0,57,0.00,,,-99.99,Weather View 32 v60,2013-03-12 11:55:00,
2013-03-12 08:00:00,31.6,18.1,29.69,West,264,4.0,18.0,57,0.00,,,-99.99,Weather View 32 v60,2013-03-12 12:00:00,
2013-03-12 08:05:00,31.6,18.5,29.69,West,266,7.0,17.0,58,0.00,,,-99.99,Weather View 32 v60,2013-03-12 12:05:00,
2013-03-12 08:10:00,31.6,18.5,29.69,West,274,9.0,13.0,58,0.00,,,-99.99,Weather View 32 v60,2013-03-12 12:10:00,
2013-03-12 08:15:00,31.6,18.9,29.69,West,269,11.0,12.0,59,0.00,,,-99.99,Weather View 32 v60,2013-03-12 12:15:00,
2013-03-12 08:20:00,31.6,18.9,29.69,WSW,251,6.0,12.0,59,0.00,,,-99.99,Weather View 32 v60,2013-03-12 12:20:00,
2013-03-12 08:25:00,31.6,18.9,29.69,West,262,6.0,12.0,59,0.00,,,-99.99,Weather View 32 v60,2013-03-12 12:25:00,
2013-03-12 08:30:00,31.6,18.5,29.69,WSW,254,6.0,13.0,58,0.00,,,-99.99,Weather View 32 v60,2013-03-12 12:30:00,
2013-03-12 08:35:00,31.5,17.6,29.69,West,272,6.0,13.0,56,0.00,,,-99.99,Weather View 32 v60,2013-03-12 12:35:00,
2013-03-12 08:40:00,31.5,17.6,29.69,WNW,290,13.0,13.0,56,0.00,,,-99.99,Weather View 32 v60,2013-03-12 12:40:00,
2013-03-12 08:45:00,31.5,17.6,29.69,West,277,8.0,13.0,56,0.00,,,-99.99,Weather View 32 v60,2013-03-12 12:45:00,
2013-03-12 08:50:00,31.5,17.1,29.69,WNW,292,8.0,13.0,55,0.00,,,-99.99,Weather View 32 v60,2013-03-12 12:50:00,
2013-03-12 08:55:00,31.3,17.0,29.69,WSW,246,8.0,13.0,55,0.00,,,-99.99,Weather View 32 v60,2013-03-12 12:55:00,
2013-03-12 09:00:00,31.3,17.0,29.69,West,265,11.0,13.0,55,0.00,,,-99.99,Weather View 32 v60,2013-03-12 13:00:00,
2013-03-12 09:05:00,31.3,16.1,29.69,WNW,288,11.0,15.0,53,0.00,,,-99.99,Weather View 32 v60,2013-03-12 13:05:00,
2013-03-12 09:10:00,31.1,15.5,29.72,West,278,11.0,15.0,52,0.00,,,-99.99,Weather View 32 v60,2013-03-12 13:10:00,
2013-03-12 09:15:00,31.1,14.6,29.72,West,275,13.0,15.0,50,0.00,,,-99.99,Weather View 32 v60,2013-03-12 13:15:00,
2013-03-12 09:20:00,30.9,13.5,29.72,West,278,14.0,17.0,48,0.00,,,-99.99,Weather View 32 v60,2013-03-12 13:20:00,
2013-03-12 09:25:00,30.9,13.0,29.72,West,266,11.0,17.0,47,0.00,,,-99.99,Weather View 32 v60,2013-03-12 13:25:00,
2013-03-12 09:30:00,30.9,13.0,29.72,West,278,8.0,17.0,47,0.00,,,-99.99,Weather View 32 v60,2013-03-12 13:30:00,
2013-03-12 09:35:00,30.9,13.5,29.72,West,263,10.0,17.0,48,0.00,,,-99.99,Weather View 32 v60,2013-03-12 13:35:00,
2013-03-12 09:44:00,30.7,13.4,29.72,West,278,9.0,17.0,48,0.00,,,-99.99,Weather View 32 v60,2013-03-12 13:44:00,
2013-03-12 09:50:00,30.7,13.4,29.72,West,271,9.0,17.0,48,0.00,,,-99.99,Weather View 32 v60,2013-03-12 13:50:00,
2013-03-12 09:55:00,30.7,12.9,29.72,WNW,302,10.0,17.0,47,0.00,,,-99.99,Weather View 32 v60,2013-03-12 13:55:00,
2013-03-12 10:00:00,30.7,12.9,29.72,WSW,252,8.0,17.0,47,0.00,,,-99.99,Weather View 32 v60,2013-03-12 14:00:00,
2013-03-12 10:05:00,30.7,12.9,29.72,West,274,17.0,17.0,47,0.00,,,-99.99,Weather View 32 v60,2013-03-12 14:05:00,
2013-03-12 10:10:00,30.7,11.9,29.72,WSW,246,11.0,17.0,45,0.00,,,-99.99,Weather View 32 v60,2013-03-12 14:10:00,
2013-03-12 10:15:00,30.7,12.4,29.72,WSW,256,6.0,17.0,46,0.00,,,-99.99,Weather View 32 v60,2013-03-12 14:15:00,
2013-03-12 10:20:00,30.7,11.9,29.72,SW,231,8.0,17.0,45,0.00,,,-99.99,Weather View 32 v60,2013-03-12 14:20:00,
2013-03-12 10:25:00,30.6,11.7,29.72,West,276,12.0,17.0,45,0.00,,,-99.99,Weather View 32 v60,2013-03-12 14:25:00,
2013-03-12 10:30:00,30.6,11.2,29.72,West,268,11.0,17.0,44,0.00,,,-99.99,Weather View 32 v60,2013-03-12 14:30:00,
2013-03-12 10:35:00,30.6,11.7,29.72,West,263,9.0,17.0,45,0.00,,,-99.99,Weather View 32 v60,2013-03-12 14:35:00,
2013-03-12 10:45:00,30.4,11.6,29.72,WNW,295,10.0,17.0,45,0.00,,,-99.99,Weather View 32 v60,2013-03-12 14:45:00,
2013-03-12 10:50:00,30.6,11.7,29.72,West,276,9.0,17.0,45,0.00,,,-99.99,Weather View 32 v60,2013-03-12 14:50:00,
2013-03-12 10:55:00,30.6,11.2,29.72,West,274,14.0,17.0,44,0.00,,,-99.99,Weather View 32 v60,2013-03-12 14:55:00,
2013-03-12 11:05:00,30.7,11.9,29.72,WSW,253,9.0,17.0,45,0.00,,,-99.99,Weather View 32 v60,2013-03-12 15:05:00,
2013-03-12 11:10:00,30.7,11.9,29.75,WNW,283,10.0,17.0,45,0.00,,,-99.99,Weather View 32 v60,2013-03-12 15:10:00,
2013-03-12 11:15:00,30.9,12.1,29.75,West,263,10.0,17.0,45,0.00,,,-99.99,Weather View 32 v60,2013-03-12 15:15:00,
2013-03-12 11:20:00,30.9,12.6,29.75,WNW,295,12.0,17.0,46,0.00,,,-99.99,Weather View 32 v60,2013-03-12 15:20:00,
2013-03-12 11:25:00,31.1,11.7,29.75,West,266,11.0,16.0,44,0.00,,,-99.99,Weather View 32 v60,2013-03-12 15:25:00,
2013-03-12 11:30:00,30.9,11.0,29.75,West,279,10.0,16.0,43,0.00,,,-99.99,Weather View 32 v60,2013-03-12 15:30:00,
2013-03-12 11:35:00,30.7,10.9,29.75,SW,216,8.0,16.0,43,0.00,,,-99.99,Weather View 32 v60,2013-03-12 15:35:00,
2013-03-12 11:40:00,30.7,11.4,29.75,WSW,249,12.0,16.0,44,0.00,,,-99.99,Weather View 32 v60,2013-03-12 15:40:00,
2013-03-12 11:45:00,30.6,11.2,29.75,West,259,8.0,16.0,44,0.00,,,-99.99,Weather View 32 v60,2013-03-12 15:45:00,
2013-03-12 11:50:00,30.4,12.1,29.75,WSW,244,9.0,16.0,46,0.00,,,-99.99,Weather View 32 v60,2013-03-12 15:50:00,
2013-03-12 11:55:00,30.2,13.3,29.75,NW,305,9.0,16.0,49,0.00,,,-99.99,Weather View 32 v60,2013-03-12 15:55:00,
2013-03-12 12:00:00,30.2,14.2,29.75,West,272,6.0,16.0,51,0.00,,,-99.99,Weather View 32 v60,2013-03-12 16:00:00,
2013-03-12 12:10:00,30.2,14.2,29.75,West,278,3.0,16.0,51,0.00,,,-99.99,Weather View 32 v60,2013-03-12 16:10:00,
2013-03-12 12:15:00,30.2,14.7,29.75,SW,235,8.0,16.0,52,0.00,,,-99.99,Weather View 32 v60,2013-03-12 16:15:00,
2013-03-12 12:20:00,30.2,14.7,29.75,WSW,255,8.0,16.0,52,0.00,,,-99.99,Weather View 32 v60,2013-03-12 16:20:00,
2013-03-12 12:25:00,30.2,15.1,29.75,WSW,238,5.0,15.0,53,0.00,,,-99.99,Weather View 32 v60,2013-03-12 16:25:00,
2013-03-12 12:30:00,30.4,14.8,29.75,SW,223,5.0,14.0,52,0.00,,,-99.99,Weather View 32 v60,2013-03-12 16:30:00,
2013-03-12 12:35:00,30.4,14.8,29.75,WSW,255,6.0,14.0,52,0.00,,,-99.99,Weather View 32 v60,2013-03-12 16:35:00,
2013-03-12 12:40:00,30.6,15.4,29.75,West,265,5.0,14.0,53,0.00,,,-99.99,Weather View 32 v60,2013-03-12 16:40:00,
2013-03-12 12:45:00,30.6,15.4,29.75,West,260,4.0,13.0,53,0.00,,,-99.99,Weather View 32 v60,2013-03-12 16:45:00,
2013-03-12 12:50:00,30.7,15.6,29.75,WSW,241,6.0,13.0,53,0.00,,,-99.99,Weather View 32 v60,2013-03-12 16:50:00,
2013-03-12 12:55:00,30.9,15.3,29.75,WSW,240,8.0,12.0,52,0.00,,,-99.99,Weather View 32 v60,2013-03-12 16:55:00,
2013-03-12 13:00:00,31.1,15.5,29.75,WNW,282,6.0,12.0,52,0.00,,,-99.99,Weather View 32 v60,2013-03-12 17:00:00,
2013-03-12 13:05:00,31.1,15.5,29.75,WSW,251,10.0,14.0,52,0.00,,,-99.99,Weather View 32 v60,2013-03-12 17:05:00,
2013-03-12 13:10:00,31.1,14.6,29.75,WSW,245,8.0,14.0,50,0.00,,,-99.99,Weather View 32 v60,2013-03-12 17:10:00,
2013-03-12 13:15:00,31.3,14.8,29.75,SW,234,8.0,14.0,50,0.00,,,-99.99,Weather View 32 v60,2013-03-12 17:15:00,
2013-03-12 13:20:00,31.3,14.8,29.75,West,275,8.0,14.0,50,0.00,,,-99.99,Weather View 32 v60,2013-03-12 17:20:00,
2013-03-12 13:30:00,31.5,14.9,29.75,WSW,253,4.0,14.0,50,0.00,,,-99.99,Weather View 32 v60,2013-03-12 17:30:00,
2013-03-12 13:35:00,31.6,14.2,29.75,WSW,253,8.0,14.0,48,0.00,,,-99.99,Weather View 32 v60,2013-03-12 17:35:00,
2013-03-12 13:40:00,31.6,14.7,29.75,WSW,244,8.0,14.0,49,0.00,,,-99.99,Weather View 32 v60,2013-03-12 17:40:00,
2013-03-12 13:45:00,31.6,14.7,29.75,SW,221,4.0,14.0,49,0.00,,,-99.99,Weather View 32 v60,2013-03-12 17:45:00,
2013-03-12 13:50:00,31.6,14.7,29.75,SW,225,2.0,14.0,49,0.00,,,-99.99,Weather View 32 v60,2013-03-12 17:50:00,
2013-03-12 13:55:00,31.6,14.7,29.75,WSW,247,5.0,14.0,49,0.00,,,-99.99,Weather View 32 v60,2013-03-12 17:55:00,
2013-03-12 14:00:00,31.8,15.3,29.75,SW,222,6.0,14.0,50,0.00,,,-99.99,Weather View 32 v60,2013-03-12 18:00:00,
2013-03-12 14:05:00,31.8,14.8,29.75,SSW,198,12.0,14.0,49,0.00,,,-99.99,Weather View 32 v60,2013-03-12 18:05:00,
2013-03-12 14:10:00,32.0,14.5,29.75,SSW,210,3.0,14.0,48,0.00,,,-99.99,Weather View 32 v60,2013-03-12 18:10:00,
2013-03-12 14:20:00,32.0,14.5,29.75,West,265,10.0,14.0,48,0.00,,,-99.99,Weather View 32 v60,2013-03-12 18:20:00,
2013-03-12 14:25:00,32.0,14.5,29.75,West,265,8.0,14.0,48,0.00,,,-99.99,Weather View 32 v60,2013-03-12 18:25:00,
2013-03-12 14:30:00,32.2,15.2,29.75,SW,223,4.0,14.0,49,0.00,,,-99.99,Weather View 32 v60,2013-03-12 18:30:00,
2013-03-12 14:35:00,32.2,15.2,29.75,SW,233,8.0,14.0,49,0.00,,,-99.99,Weather View 32 v60,2013-03-12 18:35:00,
2013-03-12 14:40:00,32.4,15.3,29.75,West,270,8.0,14.0,49,0.00,,,-99.99,Weather View 32 v60,2013-03-12 18:40:00,
2013-03-12 14:45:00,32.4,14.4,29.75,SW,232,13.0,14.0,47,0.00,,,-99.99,Weather View 32 v60,2013-03-12 18:45:00,
2013-03-12 14:50:00,32.4,14.4,29.75,SW,225,8.0,14.0,47,0.00,,,-99.99,Weather View 32 v60,2013-03-12 18:50:00,
2013-03-12 14:55:00,32.2,14.2,29.75,West,265,8.0,14.0,47,0.00,,,-99.99,Weather View 32 v60,2013-03-12 18:55:00,
2013-03-12 15:00:00,32.2,14.2,29.75,WNW,283,8.0,14.0,47,0.00,,,-99.99,Weather View 32 v60,2013-03-12 19:00:00,
2013-03-12 15:05:00,32.0,14.5,29.75,WSW,254,6.0,14.0,48,0.00,,,-99.99,Weather View 32 v60,2013-03-12 19:05:00,
2013-03-12 15:10:00,32.0,15.0,29.75,WSW,237,5.0,14.0,49,0.00,,,-99.99,Weather View 32 v60,2013-03-12 19:10:00,
2013-03-12 15:15:00,32.0,15.0,29.75,SW,230,9.0,14.0,49,0.00,,,-99.99,Weather View 32 v60,2013-03-12 19:15:00,
2013-03-12 15:20:00,32.0,15.0,29.75,WSW,243,6.0,14.0,49,0.00,,,-99.99,Weather View 32 v60,2013-03-12 19:20:00,
2013-03-12 15:25:00,32.0,15.4,29.75,WSW,239,6.0,13.0,50,0.00,,,-99.99,Weather View 32 v60,2013-03-12 19:25:00,
2013-03-12 15:30:00,31.8,15.3,29.75,SW,229,5.0,13.0,50,0.00,,,-99.99,Weather View 32 v60,2013-03-12 19:30:00,
2013-03-12 15:35:00,31.8,15.3,29.75,WSW,250,8.0,13.0,50,0.00,,,-99.99,Weather View 32 v60,2013-03-12 19:35:00,
2013-03-12 15:40:00,31.8,15.3,29.75,SW,234,9.0,13.0,50,0.00,,,-99.99,Weather View 32 v60,2013-03-12 19:40:00,
2013-03-12 15:45:00,32.0,15.9,29.75,SW,227,0.0,13.0,51,0.00,,,-99.99,Weather View 32 v60,2013-03-12 19:45:00,
2013-03-12 15:50:00,32.0,15.9,29.75,WSW,247,6.0,13.0,51,0.00,,,-99.99,Weather View 32 v60,2013-03-12 19:50:00,
2013-03-12 15:55:00,32.0,15.9,29.75,WSW,257,8.0,13.0,51,0.00,,,-99.99,Weather View 32 v60,2013-03-12 19:55:00,
2013-03-12 16:00:00,32.2,16.1,29.75,West,262,3.0,13.0,51,0.00,,,-99.99,Weather View 32 v60,2013-03-12 20:00:00,
2013-03-12 16:05:00,32.2,16.1,29.75,West,260,11.0,13.0,51,0.00,,,-99.99,Weather View 32 v60,2013-03-12 20:05:00,
2013-03-12 16:10:00,32.2,16.1,29.75,WSW,255,12.0,13.0,51,0.00,,,-99.99,Weather View 32 v60,2013-03-12 20:10:00,
2013-03-12 16:15:00,32.2,16.1,29.75,West,272,6.0,13.0,51,0.00,,,-99.99,Weather View 32 v60,2013-03-12 20:15:00,
2013-03-12 16:20:00,32.0,15.9,29.75,West,274,11.0,13.0,51,0.00,,,-99.99,Weather View 32 v60,2013-03-12 20:20:00,
2013-03-12 16:25:00,32.0,16.4,29.75,WSW,238,8.0,13.0,52,0.00,,,-99.99,Weather View 32 v60,2013-03-12 20:25:00,
2013-03-12 16:30:00,31.8,16.6,29.75,WNW,286,8.0,13.0,53,0.00,,,-99.99,Weather View 32 v60,2013-03-12 20:30:00,
2013-03-12 16:35:00,31.8,16.6,29.75,West,280,6.0,13.0,53,0.00,,,-99.99,Weather View 32 v60,2013-03-12 20:35:00,
2013-03-12 16:45:00,31.8,16.2,29.75,SW,219,6.0,13.0,52,0.00,,,-99.99,Weather View 32 v60,2013-03-12 20:45:00,
2013-03-12 16:50:00,32.0,16.4,29.75,SW,224,11.0,13.0,52,0.00,,,-99.99,Weather View 32 v60,2013-03-12 20:50:00,
2013-03-12 16:55:00,32.0,15.9,29.75,SSW,211,4.0,13.0,51,0.00,,,-99.99,Weather View 32 v60,2013-03-12 20:55:00,
2013-03-12 17:00:00,32.0,14.5,29.75,SW,230,8.0,13.0,48,0.00,,,-99.99,Weather View 32 v60,2013-03-12 21:00:00,
2013-03-12 17:05:00,32.2,14.7,29.75,SW,235,11.0,13.0,48,0.00,,,-99.99,Weather View 32 v60,2013-03-12 21:05:00,
2013-03-12 17:15:00,32.2,14.2,29.75,West,272,13.0,14.0,47,0.00,,,-99.99,Weather View 32 v60,2013-03-12 21:15:00,
2013-03-12 17:25:00,31.8,14.8,29.75,WNW,285,11.0,19.0,49,0.00,,,-99.99,Weather View 32 v60,2013-03-12 21:25:00,
2013-03-12 17:30:00,31.6,15.1,29.75,WNW,284,12.0,19.0,50,0.00,,,-99.99,Weather View 32 v60,2013-03-12 21:30:00,
2013-03-12 17:35:00,31.5,14.9,29.75,WNW,282,11.0,19.0,50,0.00,,,-99.99,Weather View 32 v60,2013-03-12 21:35:00,
2013-03-12 17:45:00,31.3,15.2,29.75,WNW,283,11.0,19.0,51,0.00,,,-99.99,Weather View 32 v60,2013-03-12 21:45:00,
2013-03-12 17:50:00,31.1,15.1,29.75,WNW,301,10.0,19.0,51,0.00,,,-99.99,Weather View 32 v60,2013-03-12 21:50:00,
2013-03-12 17:55:00,31.1,15.1,29.78,West,277,6.0,19.0,51,0.00,,,-99.99,Weather View 32 v60,2013-03-12 21:55:00,
2013-03-12 18:00:00,31.1,15.5,29.78,WSW,244,8.0,19.0,52,0.00,,,-99.99,Weather View 32 v60,2013-03-12 22:00:00,
2013-03-12 18:05:00,31.1,15.5,29.78,West,269,4.0,19.0,52,0.00,,,-99.99,Weather View 32 v60,2013-03-12 22:05:00,
2013-03-12 18:15:00,31.1,15.5,29.78,WSW,243,11.0,19.0,52,0.00,,,-99.99,Weather View 32 v60,2013-03-12 22:15:00,
2013-03-12 18:25:00,30.9,15.8,29.78,SW,227,9.0,13.0,53,0.00,,,-99.99,Weather View 32 v60,2013-03-12 22:25:00,
2013-03-12 18:30:00,30.7,16.0,29.78,WSW,258,6.0,13.0,54,0.00,,,-99.99,Weather View 32 v60,2013-03-12 22:30:00,
2013-03-12 18:35:00,30.6,16.3,29.78,WSW,251,4.0,13.0,55,0.00,,,-99.99,Weather View 32 v60,2013-03-12 22:35:00,
2013-03-12 18:40:00,30.6,16.3,29.78,WSW,248,6.0,13.0,55,0.00,,,-99.99,Weather View 32 v60,2013-03-12 22:40:00,
2013-03-12 18:45:00,30.4,16.5,29.78,West,262,5.0,13.0,56,0.00,,,-99.99,Weather View 32 v60,2013-03-12 22:45:00,
2013-03-12 18:50:00,30.4,16.5,29.78,WSW,251,6.0,13.0,56,0.00,,,-99.99,Weather View 32 v60,2013-03-12 22:50:00,
2013-03-12 18:55:00,30.4,16.5,29.78,WSW,244,6.0,13.0,56,0.00,,,-99.99,Weather View 32 v60,2013-03-12 22:55:00,
2013-03-12 19:05:00,30.4,16.5,29.78,West,269,6.0,13.0,56,0.00,,,-99.99,Weather View 32 v60,2013-03-12 23:05:00,
2013-03-12 19:10:00,30.4,16.1,29.78,West,272,6.0,13.0,55,0.00,,,-99.99,Weather View 32 v60,2013-03-12 23:10:00,
2013-03-12 19:15:00,30.4,16.1,29.78,West,273,10.0,13.0,55,0.00,,,-99.99,Weather View 32 v60,2013-03-12 23:15:00,
2013-03-12 19:20:00,30.4,16.1,29.78,WSW,252,6.0,13.0,55,0.00,,,-99.99,Weather View 32 v60,2013-03-12 23:20:00,
2013-03-12 19:25:00,30.4,16.1,29.78,SW,215,2.0,12.0,55,0.00,,,-99.99,Weather View 32 v60,2013-03-12 23:25:00,
2013-03-12 19:35:00,30.2,16.4,29.78,West,264,5.0,11.0,56,0.00,,,-99.99,Weather View 32 v60,2013-03-12 23:35:00,
2013-03-12 19:40:00,30.2,16.4,29.78,WSW,249,6.0,11.0,56,0.00,,,-99.99,Weather View 32 v60,2013-03-12 23:40:00,
2013-03-12 19:45:00,30.2,16.4,29.78,WSW,247,4.0,11.0,56,0.00,,,-99.99,Weather View 32 v60,2013-03-12 23:45:00,
2013-03-12 19:55:00,30.2,16.8,29.78,WSW,240,3.0,11.0,57,0.00,,,-99.99,Weather View 32 v60,2013-03-12 23:55:00,
2013-03-12 20:00:00,30.0,16.6,29.78,WSW,256,0.0,11.0,57,0.00,,,-99.99,Weather View 32 v60,2013-03-13 00:00:00,
2013-03-12 20:10:00,30.0,16.6,29.78,WSW,253,4.0,11.0,57,0.00,,,-99.99,Weather View 32 v60,2013-03-13 00:10:00,
2013-03-12 20:15:00,30.0,16.6,29.78,WSW,246,3.0,10.0,57,0.00,,,-99.99,Weather View 32 v60,2013-03-13 00:15:00,
2013-03-12 20:20:00,30.0,17.0,29.78,West,268,4.0,9.0,58,0.00,,,-99.99,Weather View 32 v60,2013-03-13 00:20:00,
2013-03-12 20:25:00,30.0,17.0,29.78,SW,218,8.0,9.0,58,0.00,,,-99.99,Weather View 32 v60,2013-03-13 00:25:00,
2013-03-12 20:35:00,29.8,16.5,29.78,WSW,247,6.0,8.0,57,0.00,,,-99.99,Weather View 32 v60,2013-03-13 00:35:00,
2013-03-12 20:40:00,29.8,16.5,29.81,WSW,241,5.0,8.0,57,0.00,,,-99.99,Weather View 32 v60,2013-03-13 00:40:00,
2013-03-12 20:45:00,29.8,16.5,29.81,WSW,240,3.0,8.0,57,0.00,,,-99.99,Weather View 32 v60,2013-03-13 00:45:00,
2013-03-12 20:50:00,29.8,16.5,29.81,WSW,256,4.0,8.0,57,0.00,,,-99.99,Weather View 32 v60,2013-03-13 00:50:00,
2013-03-12 21:00:00,29.8,16.5,29.81,West,261,6.0,8.0,57,0.00,,,-99.99,Weather View 32 v60,2013-03-13 01:00:00,
2013-03-12 21:05:00,29.8,16.5,29.81,SW,233,5.0,8.0,57,0.00,,,-99.99,Weather View 32 v60,2013-03-13 01:05:00,
2013-03-12 21:10:00,29.8,16.5,29.81,SW,234,4.0,8.0,57,0.00,,,-99.99,Weather View 32 v60,2013-03-13 01:10:00,
2013-03-12 21:15:00,29.8,16.5,29.81,SW,233,6.0,10.0,57,0.00,,,-99.99,Weather View 32 v60,2013-03-13 01:15:00,
2013-03-12 21:22:00,29.8,16.5,29.81,SW,233,6.0,10.0,57,0.00,,,-99.99,Weather View 32 v60,2013-03-13 01:22:00,
2013-03-12 21:30:00,29.5,15.3,29.84,West,260,6.0,11.0,55,0.00,,,-99.99,Weather View 32 v60,2013-03-13 01:30:00,
2013-03-12 21:40:00,29.3,14.7,29.84,SW,224,8.0,11.0,54,0.00,,,-99.99,Weather View 32 v60,2013-03-13 01:40:00,
2013-03-12 21:45:00,29.3,14.3,29.84,WSW,256,9.0,11.0,53,0.00,,,-99.99,Weather View 32 v60,2013-03-13 01:45:00,
2013-03-12 21:50:00,29.1,14.1,29.84,West,264,4.0,11.0,53,0.00,,,-99.99,Weather View 32 v60,2013-03-13 01:50:00,
2013-03-12 21:55:00,29.1,14.1,29.84,West,264,6.0,11.0,53,0.00,,,-99.99,Weather View 32 v60,2013-03-13 01:55:00,
2013-03-12 22:00:00,29.1,14.1,29.84,WSW,253,3.0,11.0,53,0.00,,,-99.99,Weather View 32 v60,2013-03-13 02:00:00,
2013-03-12 22:05:00,29.1,14.1,29.84,SW,229,5.0,11.0,53,0.00,,,-99.99,Weather View 32 v60,2013-03-13 02:05:00,
2013-03-12 22:15:00,28.9,13.9,29.84,WSW,245,3.0,11.0,53,0.00,,,-99.99,Weather View 32 v60,2013-03-13 02:15:00,
2013-03-12 22:20:00,28.9,14.4,29.84,WSW,250,4.0,11.0,54,0.00,,,-99.99,Weather View 32 v60,2013-03-13 02:20:00,
2013-03-12 22:25:00,28.9,14.4,29.84,West,266,5.0,11.0,54,0.00,,,-99.99,Weather View 32 v60,2013-03-13 02:25:00,
2013-03-12 22:30:00,28.9,14.4,29.84,WSW,249,3.0,11.0,54,0.00,,,-99.99,Weather View 32 v60,2013-03-13 02:30:00,
2013-03-12 22:35:00,28.9,14.4,29.84,SW,235,4.0,11.0,54,0.00,,,-99.99,Weather View 32 v60,2013-03-13 02:35:00,
2013-03-12 22:40:00,28.9,14.4,29.84,WSW,240,4.0,11.0,54,0.00,,,-99.99,Weather View 32 v60,2013-03-13 02:40:00,
2013-03-12 22:45:00,28.9,14.4,29.84,SW,229,4.0,10.0,54,0.00,,,-99.99,Weather View 32 v60,2013-03-13 02:45:00,
2013-03-12 22:50:00,28.9,14.8,29.84,SW,233,4.0,8.0,55,0.00,,,-99.99,Weather View 32 v60,2013-03-13 02:50:00,
2013-03-12 23:00:00,28.9,14.8,29.84,SW,233,3.0,8.0,55,0.00,,,-99.99,Weather View 32 v60,2013-03-13 03:00:00,
2013-03-12 23:05:00,28.9,14.8,29.84,WSW,257,6.0,8.0,55,0.00,,,-99.99,Weather View 32 v60,2013-03-13 03:05:00,
2013-03-12 23:15:00,28.8,14.6,29.84,WSW,244,4.0,8.0,55,0.00,,,-99.99,Weather View 32 v60,2013-03-13 03:15:00,
2013-03-12 23:20:00,28.8,14.6,29.84,SW,227,3.0,8.0,55,0.00,,,-99.99,Weather View 32 v60,2013-03-13 03:20:00,
2013-03-12 23:25:00,28.8,14.6,29.84,West,276,5.0,8.0,55,0.00,,,-99.99,Weather View 32 v60,2013-03-13 03:25:00,
2013-03-12 23:30:00,28.8,14.6,29.84,WSW,249,8.0,8.0,55,0.00,,,-99.99,Weather View 32 v60,2013-03-13 03:30:00,
2013-03-12 23:40:00,28.8,14.6,29.84,WSW,258,4.0,8.0,55,0.00,,,-99.99,Weather View 32 v60,2013-03-13 03:40:00,
2013-03-12 23:45:00,28.6,14.5,29.84,WSW,244,3.0,8.0,55,0.00,,,-99.99,Weather View 32 v60,2013-03-13 03:45:00,
2013-03-12 23:50:00,28.6,14.5,29.81,WSW,246,5.0,8.0,55,0.00,,,-99.99,Weather View 32 v60,2013-03-13 03:50:00,
2013-03-12 23:55:00,28.6,14.5,29.81,WSW,257,4.0,8.0,55,0.00,,,-99.99,Weather View 32 v60,2013-03-13 03:55:00,